Regional Weather Roundup
Issued by NWS

Home | Current Version | Previous Version | Graphics & Text | Print | Product List | Glossary On
Versions: 1 2 3 4 5 6 7 8 9 10 11 12 13 14 15 16 17 18 19 20 21 22 23 24 25 26 27 28 29 30 31 32 33 34 35 36 37 38 39 40 41 42 43 44 45 46 47 48 49 50
000
ASUS45 KBOU 220507
RWRCO

WEATHER ROUNDUP FOR COLORADO
NATIONAL WEATHER SERVICE DENVER/BOULDER CO
1000 PM MST SUN DEC 21 2014

NOTE: "FAIR" INDICATES FEW OR NO CLOUDS BELOW 12000 FEET WITH NO
SIGNIFICANT WEATHER AND/OR OBSTRUCTIONS TO VISIBILITY.

COZ001>005-013-030-031-220600-
...NORTHWEST COLORADO...

CITY           SKY/WX    TMP DP  RH WIND       PRES   REMARKS
CRAIG          CLOUDY    37  33  85 W14       29.80R
HAYDEN         CLOUDY    34  28  80 NW31G40   29.78S WCI  20
MEEKER         LGT SNOW  34  31  88 W7        29.84R FOG     WCI  28
MOUNT WERNER   NOT AVBL
STEAMBOAT SPGS CLOUDY    31  30  94 W15       29.76R VSB 3/4 WCI  20
WALDEN         CLOUDY    28  23  80 NW24G32   29.71R WCI  14
$$

COZ006>008-011-220600-
...WEST CENTRAL VALLEYS...

CITY           SKY/WX    TMP DP  RH WIND       PRES   REMARKS
GRAND JUNCTION CLOUDY    35  33  92 CALM      29.89F
MONTROSE       CLOUDY    31  31 100 E5        29.91R FOG     WCI  26
EAGLE          LGT SNOW N/A N/A N/A CALM      29.81S FOG
RIFLE          LGT RAIN  36  31  82 NW18G25   29.82F
DELTA          CLOUDY    34  32  93 CALM      29.90S
NUCLA          MOCLDY    32  30  93 E6        29.97F WCI  26
$$

COZ017>023-064>068-220600-
...SOUTHWEST COLORADO...

CITY           SKY/WX    TMP DP  RH WIND       PRES   REMARKS
DURANGO        MOCLDY    38  30  73 W21       29.89F
CORTEZ         CLEAR     33  29  85 E5        29.99R WCI  29
PAGOSA SPRINGS CLOUDY    30  30  99 CALM      29.91F
TELLURIDE      CLOUDY    33  32  96 W21G29    29.97S WCI  21
WOLF CREEK PAS SNOW      18  18 100 MISG      29.90R VSB 1/2
$$

COZ009-010-012-014-032>034-037-058>063-220600-
...CENTRAL COLORADO...

CITY           SKY/WX    TMP DP  RH WIND       PRES   REMARKS
ASPEN          HVY SNOW  29  28  96 N12       29.78F VSB 1/4 WCI  19
BUENA VISTA    LGT SNOW  32  31  96 CALM      29.71R
COPPER MTN     CLOUDY    25  19  80 W28G53    29.72S WCI   8
BERTHOUD PASS  HVY SNOW  16  10  79 MISG      29.56R VSB<1/4
COTTONWOOD PAS LGT SNOW  32  28  86 CALM      29.72S VSB 1
GUNNISON       CLOUDY    34  28  80 W22G33    29.79R WCI  22
KREMMLING      LGT SNOW  32  28  86 NW14G31   29.76R WCI  22
LEADVILLE      LGT SNOW  24  22  91 NW13G22   29.71F VSB 3/4 WCI  12
SALIDA         CLOUDY    38  32  80 W6        29.78R
SUNLIGHT       CLOUDY   N/A N/A N/A SW6       29.82R
WILKERSON PASS LGT SNOW  23  21  93 NW20G39   29.73S VSB 3/4 WCI   8
$$

COZ069>075-220600-
...SAN LUIS VALLEY/SANGRE DE CRISTO MOUNTAINS...

CITY           SKY/WX    TMP DP  RH WIND       PRES   REMARKS
ALAMOSA        CLOUDY    29  23  78 S7        29.75F WCI  22
LA VETA PASS   LGT SNOW  27  23  86 S13G25    29.74S WCI  16
SAGUACHE       MIX PCPN  32  30  93 SE8       29.74F WCI  25
$$

COZ035-036-038>040-220600-
...NORTHERN COLORADO FRONT RANGE...

CITY           SKY/WX    TMP DP  RH WIND       PRES   REMARKS
DENVER INTL AP RAIN      38  35  89 N18G29    29.66R FOG
DMNS CITY PARK   N/A     40  35  83 NW5G12    29.67R
AURORA         LGT RAIN  37  37  99 NW9       29.67R
FRONT RANGE AP LGT RAIN  37  36  93 NW9       29.68R
ERIE MUNI ARPT   N/A     40  34  78 N28G33    29.66R
BOULDER MUN AP CLOUDY    39  37  93 CALM      29.65R
CENTENNIAL     LGT RAIN  37  35  92 NW16G23   29.66R FOG
BROOMFIELD     LGT RAIN  39  37  93 W7        29.66R
FORT COLLINS   CLOUDY    37  27  65 N20G31    29.68R
LONGMONT       CLOUDY    42  32  68 N21G35    29.67R
$$

COZ041-046-047-076>085-087-088-220600-
...PIKES PEAK/PALMER DIVIDE AND SOUTHERN FOOTHILLS...

CITY           SKY/WX    TMP DP  RH WIND       PRES   REMARKS
COLO. SPRINGS  MOCLDY    37  27  67 N9        29.64R
A. F. ACADEMY  PTCLDY    36  29  75 N8        29.64R
ELLICOTT       NOT AVBL
FALCON         PTCLDY    33  32  94 N10       29.64F WCI  25
FORT CARSON    PTCLDY    37  25  62 VRB1      29.62R
LIMON          LGT RAIN  35  33  92 W9        29.64F WCI  28
MONUMENT HILL  LGT SNOW  32  32 100 NW6       29.64F WCI  26
TRINIDAD       CLEAR     45  25  45 NW13      29.63S
$$

COZ042>045-048>051-090-091-220600-
...NORTHEAST COLORADO...

CITY           SKY/WX    TMP DP  RH WIND       PRES   REMARKS
GREELEY ARPT   CLOUDY    37  27  65 N26G32    29.66R
AKRON          CLOUDY    38  33  82 NW18      29.59S
BURLINGTON     CLOUDY    40  35  83 W16       29.59R
WRAY           CLOUDY    40  33  78 NW10      29.56R
STERLING       LGT RAIN  37  36  93 N32       29.60R
HOLYOKE        CLOUDY    41  34  75 W12G17    29.56R
FORT MORGAN    LGT RAIN  36  31  85 N25G38    29.66R
$$

COZ086-089-092>099-220600-
...SOUTHEAST COLORADO...

CITY           SKY/WX    TMP DP  RH WIND       PRES   REMARKS
PUEBLO         PTCLDY    46  28  49 N14       29.60R
LA JUNTA       CLOUDY    40  31  70 NW3       29.62R
LAMAR          CLOUDY    42  34  73 NE8       29.59R
SPRINGFIELD      N/A     43  27  53 NW13      29.60R
$$



USA.gov is the U.S. government's official web portal to all federal, state and local government web resources and services.